FW6330 Weather Reports


Display with metric or nautical units.
time (UTC)temp
F
wind
direction
speed
MPH
gust
MPH
rain 1hr
in
rain 24hr
in
rain mn
in
humidity
%
barometer
mb
20260502193016 59 325 4.0 9.0 0.00 0.00 0.00 45 1014.3
20260502191511 59 89 3.0 9.0 0.00 0.00 0.00 45 1014.5
20260502190005 59 89 1.0 7.0 0.00 0.00 0.00 46 1014.4
20260502184502 59 72 1.0 6.0 0.00 0.00 0.00 44 1014.3
20260502183104 60 174 3.0 14.0 0.00 0.00 0.00 44 1014.5
20260502181608 60 250 0.0 5.0 0.00 0.00 0.00 48 1014.5
20260502163032 57 56 0.0 5.0 0.00 0.00 0.00 48 1014.9
20260502161521 56 238 0.0 5.0 0.00 0.00 0.00 51 1014.9
20260502151504 44 300 0.0 0.0 0.00 0.00 0.00 91 1015.1
20260502150107 41 170 0.0 0.0 0.00 0.00 0.00 93 1015.2
20260502123011 37 152 0.0 0.0 0.00 0.00 0.00 94 1014.7
20260502121510 37 224 0.0 0.0 0.00 0.00 0.00 94 1014.7
20260502114601 37 177 0.0 0.0 0.00 0.00 0.00 94 1014.9
20260502113053 37 314 0.0 0.0 0.00 0.00 0.00 94 1015.0
20260502111551 37 196 0.0 0.0 0.00 0.00 0.00 94 1015.1
20260502110055 37 297 0.0 0.0 0.00 0.00 0.00 94 1015.0
20260502104546 37 309 0.0 0.0 0.00 0.00 0.00 94 1015.1
20260502103038 37 345 0.0 0.0 0.00 0.00 0.00 93 1015.1
20260502101544 38 319 0.0 0.0 0.00 0.00 0.00 93 1015.0
20260502091517 38 191 0.0 0.0 0.00 0.00 0.00 93 1015.3
20260502080105 40 113 0.0 0.0 0.00 0.00 0.00 91 1015.7
20260502070048 41 175 0.0 0.0 0.00 0.00 0.00 89 1016.0
20260502064537 41 179 0.0 0.0 0.00 0.00 0.00 89 1016.1
20260502063032 41 188 0.0 0.0 0.00 0.00 0.00 88 1016.2
20260502061527 41 193 0.0 0.0 0.00 0.00 0.00 87 1016.1
20260502060021 41 83 0.0 0.0 0.00 0.00 0.00 86 1016.3
20260502054516 41 84 0.0 0.0 0.00 0.00 0.00 84 1016.2
20260502053012 42 217 0.0 0.0 0.00 0.00 0.00 83 1016.4
20260502051520 42 277 0.0 0.0 0.00 0.00 0.00 82 1016.4
20260502050006 42 275 0.0 0.0 0.00 0.00 0.00 81 1016.5
20260502044505 43 87 0.0 0.0 0.00 0.00 0.00 81 1016.2
20260502043012 44 150 0.0 0.0 0.00 0.00 0.00 81 1016.1
20260502041504 45 198 0.0 0.0 0.00 0.00 0.00 80 1016.0
20260502040003 46 99 0.0 1.0 0.00 0.00 0.00 78 1015.8
20260502034501 48 260 0.0 0.0 0.00 0.00 0.00 75 1015.6
20260502033104 49 41 0.0 0.0 0.00 0.00 0.00 72 1015.4
20260502031553 51 229 0.0 1.0 0.00 0.00 0.00 76 1015.4
20260502030057 52 97 0.0 1.0 0.00 0.00 0.00 74 1015.1
20260502024545 52 359 0.0 0.0 0.00 0.00 0.00 77 1015.0
20260502023059 52 120 0.0 0.0 0.00 0.00 0.00 75 1014.8
20260502021541 53 60 0.0 1.0 0.00 0.00 0.00 73 1014.8
20260502020032 54 277 0.0 1.0 0.00 0.00 0.00 70 1014.8
20260502014538 55 179 0.0 2.0 0.00 0.00 0.00 69 1014.9
20260502013033 55 238 0.0 1.0 0.00 0.00 0.00 67 1014.9
20260502011526 56 277 0.0 5.0 0.00 0.00 0.00 65 1014.8
20260502010021 57 219 0.0 5.0 0.00 0.00 0.00 63 1015.0
20260502004516 57 14 0.0 6.0 0.00 0.00 0.00 62 1014.9
20260502003012 58 195 0.0 5.0 0.00 0.00 0.00 62 1015.0
20260502001509 58 147 0.0 5.0 0.00 0.00 0.00 62 1015.0
20260502000003 59 145 0.0 4.0 0.00 0.00 0.00 59 1015.0
20260501234600 60 181 0.0 7.0 0.00 0.00 0.00 58 1015.1
20260501233055 60 17 0.0 5.0 0.00 0.00 0.00 56 1015.2
20260501231559 60 181 1.0 5.0 0.00 0.00 0.00 55 1015.3
20260501230048 61 286 0.0 6.0 0.00 0.00 0.00 53 1015.5
20260501224546 62 184 1.0 5.0 0.00 0.00 0.00 50 1015.6
20260501223046 61 181 0.0 4.0 0.00 0.00 0.00 48 1016.0
20260501221533 61 259 0.0 3.0 0.00 0.00 0.00 48 1016.2
20260501220028 60 193 0.0 3.0 0.00 0.00 0.00 47 1016.5
20260501214525 62 60 0.0 5.0 0.00 0.00 0.00 40 1016.5
20260501213019 62 43 0.0 4.0 0.00 0.00 0.00 35 1016.6
20260501211514 60 106 0.0 5.0 0.00 0.00 0.00 25 1016.7
20260501210009 60 216 1.0 7.0 0.00 0.00 0.00 23 1016.9
20260501204505 61 62 0.0 1.0 0.00 0.00 0.00 26 1017.0
20260501203108 60 6 0.0 3.0 0.00 0.00 0.00 25 1017.2
20260501201555 60 309 0.0 5.0 0.00 0.00 0.00 26 1017.2
20260501200053 59 44 0.0 4.0 0.00 0.00 0.00 27 1017.4
20260501194552 59 65 0.0 4.0 0.00 0.00 0.00 28 1017.4